Arlington, TX

11:46 PM CST on November 24, 2017 (GMT -0600)
Arlington Municipal

Weather History for KGKY - January, 2014

Change the Weather History Date:

Tuesday, January 7, 2014

  Actual Average (KRBD) Record (KRBD)
Temperature  
Mean Temperature 34 °F -  
Max Temperature 46 °F 54 °F 81 °F (2006)
Min Temperature 21 °F 36 °F 12 °F (2017)
Degree Days  
Heating Degree Days 32    
Moisture  
Dew Point 10 °F    
Average Humidity 39    
Maximum Humidity 60    
Minimum Humidity 22    
Precipitation  
Precipitation 0.00 in - - ()
Sea Level Pressure  
Sea Level Pressure 30.44 in    
Wind  
Wind Speed 8 mph (South)    
Max Wind Speed 20 mph    
Max Gust Speed 29 mph    
Visibility 10 miles    
Events      
Averages and records for this station are not official NWS values.
T = Trace of Precipitation, MM = Missing Value Source: NWS Daily Summary

Daily Weather History Graph

Daily Weather History Graph

Search for Another Location

Airport or City:

Trip Planner

Search our weather history database for the weather conditions in past years. The results will help you decide how hot, cold, wet, or windy it might be!

Date:

Astronomy

Jan. 07, 2014 Rise Set
Actual Time 7:31 AM CST 5:38 PM CST
Civil Twilight 7:04 AM CST 6:05 PM CST
Nautical Twilight 6:33 AM CST 6:35 PM CST
Astronomical Twilight 6:03 AM CST 7:05 PM CST
Moon 11:45 AM CST (1/7) No Moon Set
Length of Visible Light 11h 01m
Length of Day
10h 07m
Waxing Crescent, 46% of the Moon is Illuminated
Jan 7
Waxing Crescent
Jan 7
First Quarter
Jan 15
Full
Jan 23
Last Quarter
Jan 30
New

Hourly Weather History & Observations

Time (CST) Temp. Windchill Dew Point Humidity Pressure Visibility Wind Dir Wind Speed Gust Speed Precip Events Conditions
12:53 AM 24.1 °F 16.0 °F 7.0 °F 48% 30.58 in 10.0 mi SSW 6.9 mph - N/A   Clear
1:53 AM 24.1 °F 18.2 °F 7.0 °F 48% 30.57 in 10.0 mi SSW 4.6 mph - N/A   Clear
2:53 AM 23.0 °F 17.0 °F 8.1 °F 53% 30.57 in 10.0 mi SSW 4.6 mph - N/A   Clear
3:53 AM 23.0 °F 15.8 °F 8.1 °F 53% 30.57 in 10.0 mi SSW 5.8 mph - N/A   Clear
4:53 AM 21.9 °F 15.7 °F 8.1 °F 55% 30.56 in 10.0 mi South 4.6 mph - N/A   Clear
5:53 AM 21.0 °F 16.2 °F 8.1 °F 57% 30.55 in 10.0 mi SSE 3.5 mph - N/A   Clear
6:53 AM 21.0 °F 14.6 °F 9.0 °F 60% 30.54 in 10.0 mi South 4.6 mph - N/A   Clear
7:53 AM 23.0 °F 14.7 °F 9.0 °F 55% 30.55 in 10.0 mi South 6.9 mph - N/A   Clear
8:53 AM 27.0 °F 18.7 °F 10.9 °F 51% 30.54 in 10.0 mi South 8.1 mph - N/A   Clear
9:53 AM 33.1 °F 24.4 °F 12.0 °F 42% 30.54 in 10.0 mi South 11.5 mph - N/A   Clear
10:53 AM 37.0 °F 29.3 °F 12.0 °F 36% 30.53 in 10.0 mi SSE 11.5 mph - N/A   Clear
11:53 AM 41.0 °F 34.7 °F 8.1 °F 26% 30.48 in 10.0 mi SSW 10.4 mph 20.7 mph N/A   Clear
12:53 PM 44.1 °F 37.1 °F 10.9 °F 26% 30.43 in 10.0 mi South 15.0 mph 20.7 mph N/A   Clear
1:53 PM 46.0 °F 41.0 °F 10.0 °F 23% 30.38 in 10.0 mi South 10.4 mph 18.4 mph N/A   Clear
2:53 PM 46.9 °F - 10.0 °F 22% 30.35 in 10.0 mi SSE 13.8 mph 21.9 mph N/A   Clear
3:53 PM 46.0 °F 38.5 °F 9.0 °F 22% 30.34 in 10.0 mi SSE 19.6 mph 28.8 mph N/A   Clear
4:53 PM 44.1 °F 35.9 °F 9.0 °F 24% 30.34 in 10.0 mi South 19.6 mph 25.3 mph N/A   Clear
5:53 PM 41.0 °F 33.5 °F 8.1 °F 26% 30.32 in 10.0 mi SSE 13.8 mph 24.2 mph N/A   Clear
6:53 PM 39.0 °F 32.3 °F 9.0 °F 29% 30.33 in 10.0 mi SSE 10.4 mph - N/A   Clear
7:53 PM 37.0 °F 30.4 °F 10.0 °F 33% 30.33 in 10.0 mi SE 9.2 mph - N/A   Clear
8:53 PM 36.0 °F 29.6 °F 10.9 °F 36% 30.32 in 10.0 mi SSE 8.1 mph - N/A   Clear
9:53 PM 37.0 °F 29.3 °F 12.9 °F 37% 30.32 in 10.0 mi SSE 11.5 mph - N/A   Clear
10:53 PM 39.9 °F 32.5 °F 14.0 °F 35% 30.30 in 10.0 mi SSE 12.7 mph 21.9 mph N/A   Overcast
11:53 PM 41.0 °F 33.5 °F 15.1 °F 35% 30.27 in 10.0 mi SSE 13.8 mph 19.6 mph N/A   Overcast